Regional Weather Roundup
Issued by NWS

Home | Current Version | Previous Version | Text Only | Print | Product List | Glossary On
Versions: 1 2 3 4 5 6 7 8 9 10 11 12 13 14 15 16 17 18 19 20 21 22 23 24 25 26 27 28 29 30 31 32 33 34 35 36 37 38 39 40 41 42 43 44 45 46 47 48 49 50
000
ASUS43 KLMK 020310
RWRKY
KENTUCKY REGIONAL WEATHER ROUNDUP
NATIONAL WEATHER SERVICE LOUISVILLE KY
1100 PM EDT WED APR 01 2015

NOTE "FAIR" INDICATES FEW OR NO CLOUDS BELOW 12,000 FEET
WITH NO SIGNIFICANT WEATHER AND/OR OBSTRUCTIONS TO VISIBILITY.

KYZ001>023-026-027-061>063-070>075-020400-
WESTERN AND SOUTH CENTRAL KENTUCKY

CITY           SKY/WX    TMP DP  RH WIND       PRES   REMARKS
PADUCAH        LGT RAIN  59  51  75 MISG      29.95F
HENDERSON      MOCLDY    63  34  34 SE8       29.97F
OWENSBORO      MOCLDY    62  34  35 SE8       29.99F
HOPKINSVILLE   CLOUDY    64  37  37 SE5       30.00S
BOWLING GREEN  CLOUDY    56  35  45 CALM      30.04F
GLASGOW        PTCLDY    50  33  51 E5        30.05F
$$

KYZ024-025-028>034-038-045-046-053-020400-
NORTH CENTRAL KENTUCKY

CITY           SKY/WX    TMP DP  RH WIND       PRES   REMARKS
LOUISVILLE/SDF MOCLDY    57  30  35 E6        30.05F
LOUISVILLE/LOU CLOUDY    59  28  30 E3        30.05F
FORT KNOX      MOCLDY    56  30  36 E5        30.03F HAZE
$$

KYZ035>037-039>044-047>052-055>060-089>105-020400-
NORTHEAST KENTUCKY

CITY           SKY/WX    TMP DP  RH WIND       PRES   REMARKS
LEXINGTON      PTCLDY    55  27  34 E6        30.08F
COVINGTON      PTCLDY    50  29  44 SE5       30.07F
FRANKFORT      PTCLDY    47  31  53 CALM      30.07S
$$

KYZ054-064>069-076>088-106>120-020400-
SOUTHEAST KENTUCKY

CITY           SKY/WX    TMP DP  RH WIND       PRES   REMARKS
JACKSON        MOCLDY    58  16  19 VRB3      30.11S
LONDON         PTCLDY    54  28  36 CALM      30.10S
SOMERSET       PTCLDY    50  28  43 CALM      30.10S
MIDDLESBORO    PTCLDY    48  36  64 CALM      30.13S
MONTICELLO     MOCLDY    44  34  68 CALM      30.11S
$$




USA.gov is the U.S. government's official web portal to all federal, state and local government web resources and services.